| time (UTC) | temp F | wind direction | speed MPH | gust MPH | rain 1hr in | rain 24hr in | rain mn in | humidity % | barometer mb |
| 20260831103503 | 58 | 0 | 0.0 | 0.0 | 0.00 | 0.00 | 0.00 | 84 | 1010.7 |
| 20260831103003 | 58 | 0 | 0.0 | 0.0 | 0.00 | 0.00 | 0.00 | 84 | 1010.8 |
| 20260831102503 | 58 | 0 | 0.0 | 0.0 | 0.00 | 0.00 | 0.00 | 84 | 1010.8 |
| 20260831102003 | 58 | 0 | 0.0 | 0.0 | 0.00 | 0.00 | 0.00 | 84 | 1010.8 |
| 20260831101503 | 58 | 0 | 0.0 | 0.0 | 0.00 | 0.00 | 0.00 | 83 | 1010.9 |
| 20260831101003 | 59 | 0 | 0.0 | 0.0 | 0.00 | 0.00 | 0.00 | 83 | 1011.0 |
| 20260831100524 | 59 | 0 | 0.0 | 0.0 | 0.00 | 0.00 | 0.00 | 83 | 1010.9 |
| 20260831100003 | 59 | 0 | 0.0 | 0.0 | 0.00 | 0.00 | 0.00 | 83 | 1010.9 |
| 20260831095503 | 59 | 0 | 0.0 | 0.0 | 0.00 | 0.00 | 0.00 | 83 | 1011.0 |
| 20260831095003 | 59 | 24 | 0.0 | 1.0 | 0.00 | 0.00 | 0.00 | 83 | 1011.0 |
| 20260831094503 | 59 | 356 | 0.0 | 1.0 | 0.00 | 0.00 | 0.00 | 82 | 1011.1 |
| 20260831094003 | 59 | 329 | 0.0 | 2.0 | 0.00 | 0.00 | 0.00 | 82 | 1011.2 |
| 20260831093503 | 59 | 330 | 0.0 | 2.0 | 0.00 | 0.00 | 0.00 | 82 | 1011.2 |
| 20260831093024 | 59 | 0 | 0.0 | 0.0 | 0.00 | 0.00 | 0.00 | 82 | 1011.3 |
| 20260831092524 | 60 | 0 | 0.0 | 0.0 | 0.00 | 0.00 | 0.00 | 82 | 1011.4 |
| 20260831092003 | 60 | 323 | 0.0 | 1.0 | 0.00 | 0.00 | 0.00 | 81 | 1011.4 |
| 20260831091503 | 60 | 323 | 0.0 | 1.0 | 0.00 | 0.00 | 0.00 | 81 | 1011.4 |
| 20260831091003 | 60 | 348 | 0.0 | 1.0 | 0.00 | 0.00 | 0.00 | 81 | 1011.5 |
| 20260831090503 | 60 | 331 | 0.0 | 5.0 | 0.00 | 0.00 | 0.00 | 81 | 1011.5 |
| 20260831090003 | 60 | 330 | 0.0 | 5.0 | 0.00 | 0.00 | 0.00 | 81 | 1011.5 |
| 20260831085503 | 60 | 348 | 0.0 | 4.0 | 0.00 | 0.00 | 0.00 | 81 | 1011.5 |
| 20260831085003 | 60 | 348 | 0.0 | 4.0 | 0.00 | 0.00 | 0.00 | 81 | 1011.5 |
| 20260831084503 | 60 | 338 | 0.0 | 6.0 | 0.00 | 0.00 | 0.00 | 81 | 1011.6 |
| 20260831084003 | 60 | 334 | 0.0 | 6.0 | 0.00 | 0.00 | 0.00 | 81 | 1011.6 |
| 20260831083503 | 60 | 344 | 0.0 | 3.0 | 0.00 | 0.00 | 0.00 | 81 | 1011.6 |
| 20260831083003 | 60 | 337 | 0.0 | 5.0 | 0.00 | 0.00 | 0.00 | 80 | 1011.6 |
| 20260831082503 | 60 | 328 | 0.0 | 5.0 | 0.00 | 0.00 | 0.00 | 80 | 1011.7 |
| 20260831082003 | 60 | 0 | 0.0 | 0.0 | 0.00 | 0.00 | 0.00 | 80 | 1011.7 |
| 20260831081503 | 61 | 323 | 0.0 | 4.0 | 0.00 | 0.00 | 0.00 | 80 | 1011.8 |
| 20260831081003 | 61 | 323 | 0.0 | 4.0 | 0.00 | 0.00 | 0.00 | 79 | 1012.0 |
| 20260831080503 | 61 | 331 | 1.0 | 4.0 | 0.00 | 0.00 | 0.00 | 79 | 1012.0 |
| 20260831080003 | 61 | 331 | 1.0 | 4.0 | 0.00 | 0.00 | 0.00 | 79 | 1012.0 |
| 20260831075524 | 61 | 330 | 0.0 | 4.0 | 0.00 | 0.00 | 0.00 | 79 | 1012.1 |
| 20260831075003 | 61 | 0 | 0.0 | 0.0 | 0.00 | 0.00 | 0.00 | 79 | 1012.1 |
| 20260831074524 | 61 | 0 | 0.0 | 0.0 | 0.00 | 0.00 | 0.00 | 78 | 1012.2 |
| 20260831074024 | 61 | 345 | 0.0 | 1.0 | 0.00 | 0.00 | 0.00 | 78 | 1012.2 |
| 20260831073503 | 61 | 337 | 0.0 | 2.0 | 0.00 | 0.00 | 0.00 | 78 | 1012.2 |
| 20260831073024 | 61 | 336 | 0.0 | 2.0 | 0.00 | 0.00 | 0.00 | 78 | 1012.2 |
| 20260831072503 | 61 | 0 | 0.0 | 0.0 | 0.00 | 0.00 | 0.00 | 77 | 1012.3 |
| 20260831072024 | 61 | 0 | 0.0 | 0.0 | 0.00 | 0.00 | 0.00 | 77 | 1012.4 |
| 20260831071503 | 61 | 0 | 0.0 | 0.0 | 0.00 | 0.00 | 0.00 | 77 | 1012.4 |
| 20260831071024 | 61 | 341 | 0.0 | 1.0 | 0.00 | 0.00 | 0.00 | 76 | 1012.5 |
| 20260831070503 | 62 | 320 | 0.0 | 2.0 | 0.00 | 0.00 | 0.00 | 76 | 1012.6 |
| 20260831070024 | 62 | 318 | 0.0 | 2.0 | 0.00 | 0.00 | 0.00 | 76 | 1012.6 |
| 20260831065524 | 62 | 311 | 0.0 | 1.0 | 0.00 | 0.00 | 0.00 | 76 | 1012.6 |
| 20260831065003 | 62 | 0 | 0.0 | 0.0 | 0.00 | 0.00 | 0.00 | 75 | 1012.7 |
| 20260831064503 | 62 | 0 | 0.0 | 0.0 | 0.00 | 0.00 | 0.00 | 75 | 1012.8 |
| 20260831064003 | 62 | 0 | 0.0 | 0.0 | 0.00 | 0.00 | 0.00 | 74 | 1012.8 |
| 20260831063503 | 62 | 0 | 0.0 | 0.0 | 0.00 | 0.00 | 0.00 | 74 | 1012.8 |
| 20260831063024 | 62 | 0 | 0.0 | 0.0 | 0.00 | 0.00 | 0.00 | 74 | 1012.9 |
| 20260831062503 | 62 | 0 | 0.0 | 0.0 | 0.00 | 0.00 | 0.00 | 74 | 1012.9 |
| 20260831062003 | 62 | 0 | 0.0 | 0.0 | 0.00 | 0.00 | 0.00 | 74 | 1012.9 |
| 20260831061524 | 62 | 0 | 0.0 | 0.0 | 0.00 | 0.00 | 0.00 | 73 | 1013.0 |
| 20260831061003 | 62 | 0 | 0.0 | 0.0 | 0.00 | 0.00 | 0.00 | 73 | 1013.0 |
| 20260831060524 | 62 | 0 | 0.0 | 0.0 | 0.00 | 0.00 | 0.00 | 73 | 1013.0 |
| 20260831060003 | 62 | 0 | 0.0 | 0.0 | 0.00 | 0.00 | 0.00 | 73 | 1013.1 |
| 20260831055503 | 63 | 0 | 0.0 | 0.0 | 0.00 | 0.00 | 0.00 | 72 | 1013.1 |
| 20260831055024 | 63 | 0 | 0.0 | 0.0 | 0.00 | 0.00 | 0.00 | 72 | 1013.1 |
| 20260831054503 | 63 | 0 | 0.0 | 0.0 | 0.00 | 0.00 | 0.00 | 72 | 1013.2 |
| 20260831054003 | 63 | 0 | 0.0 | 0.0 | 0.00 | 0.00 | 0.00 | 72 | 1013.2 |
| 20260831053503 | 63 | 0 | 0.0 | 0.0 | 0.00 | 0.00 | 0.00 | 71 | 1013.2 |
| 20260831053003 | 63 | 0 | 0.0 | 0.0 | 0.00 | 0.00 | 0.00 | 71 | 1013.4 |
| 20260831052503 | 63 | 0 | 0.0 | 0.0 | 0.00 | 0.00 | 0.00 | 71 | 1013.4 |
| 20260831052024 | 63 | 0 | 0.0 | 0.0 | 0.00 | 0.00 | 0.00 | 70 | 1013.4 |
| 20260831051503 | 64 | 0 | 0.0 | 0.0 | 0.00 | 0.00 | 0.00 | 70 | 1013.5 |
| 20260831051024 | 64 | 0 | 0.0 | 0.0 | 0.00 | 0.00 | 0.00 | 70 | 1013.5 |
| 20260831050524 | 64 | 0 | 0.0 | 0.0 | 0.00 | 0.00 | 0.00 | 69 | 1013.5 |
| 20260831050003 | 64 | 0 | 0.0 | 0.0 | 0.00 | 0.00 | 0.00 | 69 | 1013.6 |
| 20260831045503 | 64 | 0 | 0.0 | 0.0 | 0.00 | 0.00 | 0.00 | 69 | 1013.7 |
| 20260831045003 | 64 | 0 | 0.0 | 0.0 | 0.00 | 0.00 | 0.00 | 69 | 1013.6 |
| 20260831044525 | 64 | 0 | 0.0 | 0.0 | 0.00 | 0.00 | 0.00 | 68 | 1013.7 |
| 20260831044003 | 64 | 0 | 0.0 | 0.0 | 0.00 | 0.00 | 0.00 | 68 | 1013.7 |
| 20260831043503 | 65 | 0 | 0.0 | 0.0 | 0.00 | 0.00 | 0.00 | 67 | 1013.7 |
| 20260831043003 | 65 | 0 | 0.0 | 0.0 | 0.00 | 0.00 | 0.00 | 67 | 1013.8 |
| 20260831042503 | 65 | 276 | 0.0 | 1.0 | 0.00 | 0.00 | 0.00 | 67 | 1013.8 |
| 20260831042003 | 65 | 276 | 0.0 | 1.0 | 0.00 | 0.00 | 0.00 | 66 | 1013.8 |
| 20260831041503 | 65 | 0 | 0.0 | 0.0 | 0.00 | 0.00 | 0.00 | 66 | 1013.8 |
| 20260831041003 | 65 | 0 | 0.0 | 0.0 | 0.00 | 0.00 | 0.00 | 65 | 1013.8 |
| 20260831040503 | 65 | 0 | 0.0 | 0.0 | 0.00 | 0.00 | 0.00 | 65 | 1013.9 |
| 20260831040003 | 66 | 0 | 0.0 | 0.0 | 0.00 | 0.00 | 0.00 | 65 | 1013.9 |
| 20260831035503 | 66 | 0 | 0.0 | 0.0 | 0.00 | 0.00 | 0.00 | 64 | 1013.9 |
| 20260831035003 | 66 | 0 | 0.0 | 0.0 | 0.00 | 0.00 | 0.00 | 64 | 1013.9 |
| 20260831034503 | 66 | 338 | 0.0 | 2.0 | 0.00 | 0.00 | 0.00 | 64 | 1013.9 |
| 20260831034024 | 66 | 338 | 0.0 | 2.0 | 0.00 | 0.00 | 0.00 | 63 | 1013.9 |
| 20260831033503 | 66 | 0 | 0.0 | 0.0 | 0.00 | 0.00 | 0.00 | 63 | 1013.9 |
| 20260831033003 | 66 | 0 | 0.0 | 0.0 | 0.00 | 0.00 | 0.00 | 62 | 1013.8 |
| 20260831032503 | 67 | 0 | 0.0 | 0.0 | 0.00 | 0.00 | 0.00 | 62 | 1013.9 |
| 20260831032003 | 67 | 292 | 0.0 | 1.0 | 0.00 | 0.00 | 0.00 | 61 | 1014.0 |
| 20260831031503 | 67 | 292 | 0.0 | 1.0 | 0.00 | 0.00 | 0.00 | 61 | 1013.9 |
| 20260831031003 | 67 | 0 | 0.0 | 0.0 | 0.00 | 0.00 | 0.00 | 60 | 1013.9 |
| 20260831030503 | 68 | 305 | 0.0 | 1.0 | 0.00 | 0.00 | 0.00 | 60 | 1013.9 |
| 20260831030003 | 68 | 305 | 0.0 | 1.0 | 0.00 | 0.00 | 0.00 | 59 | 1013.9 |
| 20260831025503 | 68 | 0 | 0.0 | 0.0 | 0.00 | 0.00 | 0.00 | 59 | 1014.0 |
| 20260831025024 | 68 | 0 | 0.0 | 0.0 | 0.00 | 0.00 | 0.00 | 58 | 1013.9 |
| 20260831024524 | 68 | 317 | 0.0 | 1.0 | 0.00 | 0.00 | 0.00 | 57 | 1014.0 |
| 20260831024004 | 69 | 317 | 0.0 | 1.0 | 0.00 | 0.00 | 0.00 | 57 | 1014.0 |
| 20260831023503 | 69 | 0 | 0.0 | 0.0 | 0.00 | 0.00 | 0.00 | 56 | 1014.0 |
| 20260831023003 | 70 | 313 | 0.0 | 1.0 | 0.00 | 0.00 | 0.00 | 56 | 1014.1 |
| 20260831022503 | 70 | 325 | 0.0 | 1.0 | 0.00 | 0.00 | 0.00 | 55 | 1014.1 |
| 20260831022024 | 70 | 343 | 0.0 | 1.0 | 0.00 | 0.00 | 0.00 | 54 | 1014.0 |
| 20260831021503 | 70 | 320 | 0.0 | 1.0 | 0.00 | 0.00 | 0.00 | 54 | 1014.0 |
| 20260831021003 | 71 | 304 | 0.0 | 3.0 | 0.00 | 0.00 | 0.00 | 53 | 1014.1 |
| 20260831020503 | 71 | 298 | 0.0 | 3.0 | 0.00 | 0.00 | 0.00 | 53 | 1014.1 |
| 20260831020003 | 71 | 332 | 0.0 | 2.0 | 0.00 | 0.00 | 0.00 | 52 | 1014.1 |
| 20260831015503 | 72 | 332 | 0.0 | 2.0 | 0.00 | 0.00 | 0.00 | 52 | 1014.1 |
| 20260831015001 | 72 | 0 | 0.0 | 0.0 | 0.00 | 0.00 | 0.00 | 52 | 1014.1 |
| 20260831014500 | 72 | 298 | 0.0 | 1.0 | 0.00 | 0.00 | 0.00 | 51 | 1014.2 |
| 20260831014022 | 72 | 297 | 0.0 | 1.0 | 0.00 | 0.00 | 0.00 | 51 | 1014.1 |
| 20260831013500 | 72 | 309 | 0.0 | 2.0 | 0.00 | 0.00 | 0.00 | 50 | 1014.2 |
| 20260831013001 | 72 | 323 | 0.0 | 4.0 | 0.00 | 0.00 | 0.00 | 49 | 1014.2 |
| 20260831012500 | 73 | 321 | 0.0 | 4.0 | 0.00 | 0.00 | 0.00 | 49 | 1014.3 |
| 20260831012000 | 73 | 328 | 0.0 | 3.0 | 0.00 | 0.00 | 0.00 | 48 | 1014.4 |
| 20260831011500 | 73 | 329 | 0.0 | 3.0 | 0.00 | 0.00 | 0.00 | 47 | 1014.4 |
| 20260831011000 | 73 | 331 | 0.0 | 3.0 | 0.00 | 0.00 | 0.00 | 46 | 1014.4 |
| 20260831010522 | 74 | 337 | 0.0 | 3.0 | 0.00 | 0.00 | 0.00 | 46 | 1014.5 |
| 20260831010000 | 74 | 9 | 0.0 | 1.0 | 0.00 | 0.00 | 0.00 | 45 | 1014.6 |
| 20260831005500 | 74 | 339 | 0.0 | 3.0 | 0.00 | 0.00 | 0.00 | 46 | 1014.7 |
| 20260831005001 | 74 | 299 | 0.0 | 3.0 | 0.00 | 0.00 | 0.00 | 46 | 1014.8 |
| 20260831004501 | 74 | 309 | 0.0 | 4.0 | 0.00 | 0.00 | 0.00 | 46 | 1014.8 |
| 20260831004022 | 74 | 334 | 0.0 | 4.0 | 0.00 | 0.00 | 0.00 | 46 | 1014.8 |
| 20260831003501 | 74 | 326 | 0.0 | 3.0 | 0.00 | 0.00 | 0.00 | 45 | 1014.8 |
| 20260831003000 | 74 | 325 | 0.0 | 3.0 | 0.00 | 0.00 | 0.00 | 45 | 1014.9 |
| 20260831002501 | 74 | 283 | 1.0 | 3.0 | 0.00 | 0.00 | 0.00 | 47 | 1014.9 |
| 20260831002000 | 74 | 285 | 1.0 | 4.0 | 0.00 | 0.00 | 0.00 | 47 | 1014.9 |
| 20260831001501 | 74 | 334 | 0.0 | 4.0 | 0.00 | 0.00 | 0.00 | 46 | 1015.0 |
| 20260831001000 | 75 | 307 | 0.0 | 3.0 | 0.00 | 0.00 | 0.00 | 44 | 1015.0 |
| 20260831000501 | 75 | 295 | 0.0 | 3.0 | 0.00 | 0.00 | 0.00 | 46 | 1014.9 |
| 20260831000001 | 74 | 300 | 0.0 | 3.0 | 0.00 | 0.00 | 0.00 | 46 | 1015.0 |
| 20260830235500 | 74 | 301 | 0.0 | 3.0 | 0.00 | 0.00 | 0.00 | 46 | 1015.0 |
| 20260830235001 | 74 | 312 | 1.0 | 3.0 | 0.00 | 0.00 | 0.00 | 45 | 1015.1 |
| 20260830234501 | 75 | 316 | 1.0 | 4.0 | 0.00 | 0.00 | 0.00 | 45 | 1015.2 |
| 20260830234000 | 75 | 311 | 0.0 | 4.0 | 0.00 | 0.00 | 0.00 | 45 | 1015.2 |
| 20260830233522 | 75 | 327 | 0.0 | 2.0 | 0.00 | 0.00 | 0.00 | 45 | 1015.3 |
| 20260830233001 | 75 | 316 | 0.0 | 2.0 | 0.00 | 0.00 | 0.00 | 45 | 1015.3 |
| 20260830232500 | 75 | 301 | 0.0 | 3.0 | 0.00 | 0.00 | 0.00 | 45 | 1015.3 |
| 20260830232001 | 75 | 294 | 0.0 | 4.0 | 0.00 | 0.00 | 0.00 | 44 | 1015.4 |
| 20260830231500 | 75 | 294 | 0.0 | 4.0 | 0.00 | 0.00 | 0.00 | 44 | 1015.4 |
| 20260830231000 | 75 | 312 | 0.0 | 2.0 | 0.00 | 0.00 | 0.00 | 44 | 1015.5 |
| 20260830230500 | 75 | 308 | 0.0 | 7.0 | 0.00 | 0.00 | 0.00 | 44 | 1015.5 |
| 20260830230001 | 75 | 305 | 0.0 | 7.0 | 0.00 | 0.00 | 0.00 | 45 | 1015.6 |
| 20260830225501 | 75 | 286 | 0.0 | 3.0 | 0.00 | 0.00 | 0.00 | 45 | 1015.6 |
| 20260830225021 | 74 | 291 | 0.0 | 3.0 | 0.00 | 0.00 | 0.00 | 46 | 1015.7 |
| 20260830224500 | 74 | 305 | 0.0 | 2.0 | 0.00 | 0.00 | 0.00 | 45 | 1015.9 |
| 20260830224021 | 75 | 318 | 0.0 | 2.0 | 0.00 | 0.00 | 0.00 | 45 | 1016.0 |
| 20260830223500 | 74 | 332 | 0.0 | 2.0 | 0.00 | 0.00 | 0.00 | 45 | 1016.1 |
| 20260830223001 | 75 | 308 | 0.0 | 2.0 | 0.00 | 0.00 | 0.00 | 45 | 1016.2 |
| 20260830222501 | 74 | 296 | 0.0 | 6.0 | 0.00 | 0.00 | 0.00 | 46 | 1016.3 |
| 20260830222001 | 74 | 290 | 0.0 | 6.0 | 0.00 | 0.00 | 0.00 | 45 | 1016.3 |
| 20260830221501 | 74 | 285 | 0.0 | 3.0 | 0.00 | 0.00 | 0.00 | 45 | 1016.4 |
| 20260830221001 | 74 | 311 | 0.0 | 3.0 | 0.00 | 0.00 | 0.00 | 45 | 1016.4 |
| 20260830220501 | 74 | 309 | 0.0 | 3.0 | 0.00 | 0.00 | 0.00 | 45 | 1016.5 |
| 20260830220000 | 74 | 300 | 0.0 | 1.0 | 0.00 | 0.00 | 0.00 | 46 | 1016.6 |
| 20260830215501 | 74 | 340 | 0.0 | 1.0 | 0.00 | 0.00 | 0.00 | 46 | 1016.7 |
| 20260830215000 | 74 | 332 | 0.0 | 1.0 | 0.00 | 0.00 | 0.00 | 46 | 1016.8 |
| 20260830214500 | 74 | 281 | 0.0 | 2.0 | 0.00 | 0.00 | 0.00 | 46 | 1016.7 |
| 20260830214000 | 73 | 312 | 0.0 | 5.0 | 0.00 | 0.00 | 0.00 | 47 | 1016.8 |
| 20260830213501 | 73 | 306 | 0.0 | 5.0 | 0.00 | 0.00 | 0.00 | 47 | 1016.9 |
| 20260830213001 | 73 | 293 | 0.0 | 4.0 | 0.00 | 0.00 | 0.00 | 46 | 1017.0 |
| 20260830212501 | 73 | 331 | 0.0 | 3.0 | 0.00 | 0.00 | 0.00 | 47 | 1017.0 |
| 20260830212021 | 73 | 333 | 1.0 | 3.0 | 0.00 | 0.00 | 0.00 | 47 | 1017.1 |
| 20260830211501 | 72 | 322 | 0.0 | 3.0 | 0.00 | 0.00 | 0.00 | 47 | 1017.1 |
| 20260830211022 | 72 | 314 | 1.0 | 4.0 | 0.00 | 0.00 | 0.00 | 48 | 1017.2 |
| 20260830210500 | 72 | 296 | 1.0 | 7.0 | 0.00 | 0.00 | 0.00 | 48 | 1017.2 |
| 20260830210001 | 72 | 280 | 0.0 | 7.0 | 0.00 | 0.00 | 0.00 | 47 | 1017.3 |
| 20260830205501 | 72 | 300 | 0.0 | 5.0 | 0.00 | 0.00 | 0.00 | 47 | 1017.3 |
| 20260830205001 | 72 | 302 | 0.0 | 5.0 | 0.00 | 0.00 | 0.00 | 48 | 1017.3 |
| 20260830204501 | 72 | 317 | 0.0 | 5.0 | 0.00 | 0.00 | 0.00 | 47 | 1017.4 |
| 20260830204000 | 72 | 353 | 0.0 | 2.0 | 0.00 | 0.00 | 0.00 | 48 | 1017.5 |
| 20260830203500 | 72 | 325 | 0.0 | 2.0 | 0.00 | 0.00 | 0.00 | 47 | 1017.6 |
| 20260830203000 | 72 | 294 | 0.0 | 1.0 | 0.00 | 0.00 | 0.00 | 47 | 1017.7 |
| 20260830202500 | 71 | 306 | 0.0 | 3.0 | 0.00 | 0.00 | 0.00 | 48 | 1017.7 |
| 20260830202000 | 71 | 305 | 0.0 | 3.0 | 0.00 | 0.00 | 0.00 | 48 | 1017.8 |
| 20260830201521 | 71 | 298 | 0.0 | 3.0 | 0.00 | 0.00 | 0.00 | 48 | 1017.8 |
| 20260830201000 | 71 | 284 | 0.0 | 2.0 | 0.00 | 0.00 | 0.00 | 49 | 1017.9 |
| 20260830200501 | 70 | 314 | 0.0 | 2.0 | 0.00 | 0.00 | 0.00 | 49 | 1017.9 |
| 20260830200022 | 70 | 298 | 0.0 | 7.0 | 0.00 | 0.00 | 0.00 | 50 | 1017.8 |
| 20260830195501 | 70 | 274 | 0.0 | 7.0 | 0.00 | 0.00 | 0.00 | 49 | 1017.9 |
| 20260830195000 | 70 | 308 | 0.0 | 1.0 | 0.00 | 0.00 | 0.00 | 49 | 1018.1 |
| 20260830194500 | 70 | 293 | 0.0 | 5.0 | 0.00 | 0.00 | 0.00 | 49 | 1018.2 |
| 20260830194000 | 70 | 290 | 0.0 | 5.0 | 0.00 | 0.00 | 0.00 | 50 | 1018.1 |
| 20260830193500 | 69 | 303 | 0.0 | 2.0 | 0.00 | 0.00 | 0.00 | 51 | 1018.1 |
| 20260830193021 | 69 | 298 | 0.0 | 2.0 | 0.00 | 0.00 | 0.00 | 51 | 1018.2 |
| 20260830192501 | 69 | 255 | 0.0 | 1.0 | 0.00 | 0.00 | 0.00 | 52 | 1018.2 |
| 20260830192000 | 69 | 286 | 0.0 | 1.0 | 0.00 | 0.00 | 0.00 | 51 | 1018.4 |